Starlink 31631

operational
NORAD ID: 59459 Int'l Des: 2024-068 Owner: SPXS Country: US Constellation: starlink
LEOCIRCULAR

Starlink 31631について

説明を読み込み中...

リアルタイム位置

3D地球を読み込み中...

次回通過

高度履歴

Altitude vs Time

uPlot chart will show altitude changes over time

軌道要素

1 59459U 24068E 25351.41757647 -.00003390 00000-0 -11366-3 0 9996
2 59459 42.9994 135.3990 0001578 281.2181 78.8493 15.27598670 95985
Epoch: Dec 17, 2025 • Age: 12 hours

現在のステータス

高度 495.2 km
速度 7.62 km/s
衛星直下点 -42.82°S, 25.4°W
打ち上げ日 Apr 10, 2024
運用期間 1.6 years
タイプ internet

技術仕様

分類 Payload
質量 730.00 kg
乾燥質量 700.00 kg
総質量 730.00 kg
長さ 0.30 m
直径 4.10 m
スパン 29.00 m
形状 Box + pan
製造者 SPXS
バスタイプ Starlink V2M
フェーズステータス In Orbit
所有者/国 SPXS/US

大規模コンステレーション

Loading constellations...